Location: Caltech
(34.1382°N, 118.1253°W)
Time: 19:40:54
(UTC-07:00)

Cosmos 2237 Rocket - Visible Passes

Search period start: 04 July 2015 00:00
Search period end: 14 July 2015 00:00
Orbit: 836 x 849 km, 71.0° (Epoch: 03 July)

Date Brightness Start Highest point End Pass type
(mag) Time Alt. Az. Time Alt. Az. Time Alt. Az.
04 Jul 2.8 01:12:41 10° NNW 01:17:01 52° N 01:17:01 52° N visible
05 Jul 2.9 00:57:54 10° NNW 01:02:11 50° N 01:02:11 50° N visible
06 Jul 3.0 00:43:07 10° NNW 00:47:24 48° NNE 00:47:24 48° NNE visible
07 Jul 3.0 00:28:21 10° NNW 00:32:39 47° NNE 00:32:39 47° NNE visible
07 Jul 4.6 02:14:18 10° WNW 02:14:28 10° WNW 02:14:28 10° WNW visible
08 Jul 3.0 00:13:35 10° NNW 00:17:57 47° NNE 00:17:57 47° NNE visible
08 Jul 4.6 01:59:19 10° WNW 01:59:46 11° WNW 01:59:46 11° WNW visible
08 Jul 2.9 23:58:48 10° N 00:03:17 46° NNE 00:03:17 46° NNE visible
09 Jul 4.5 01:44:21 10° WNW 01:45:06 12° WNW 01:45:06 12° WNW visible
09 Jul 2.9 23:44:02 10° N 23:48:39 46° NE 23:48:39 46° NE visible
10 Jul 4.5 01:29:24 10° WNW 01:30:28 13° WNW 01:30:28 13° WNW visible
10 Jul 2.9 23:29:16 10° N 23:34:03 45° NE 23:34:03 45° NE visible
11 Jul 4.4 01:14:29 10° WNW 01:15:52 15° WNW 01:15:52 15° WNW visible
11 Jul 2.9 23:14:31 10° N 23:19:29 44° NE 23:19:29 44° NE visible
12 Jul 4.3 00:59:33 10° NW 01:01:18 16° WNW 01:01:18 16° WNW visible
12 Jul 2.8 22:59:45 10° N 23:04:57 42° ENE 23:04:57 42° ENE visible
13 Jul 4.2 00:44:39 10° NW 00:46:46 18° WNW 00:46:46 18° WNW visible
13 Jul 2.8 22:45:00 10° N 22:50:15 40° ENE 22:50:26 40° ENE visible
